• In Austria
  • List of Countries
  • For 7 days
  • Water Temperature
  • Satellite Maps
  • Weather Map
  • News
  • Weather Widgets
  • user-avatar
    Login

    Hourly Weather Chyzhivka

    Today, 16 August, Thursday

    Time Temperature Precipitation Wind Pressure Humidity
    00:00 +23°C° 0 mm 1 mps 740 mmHg 53%
    01:00 +22°C° 0 mm 1 mps 740 mmHg 58%
    02:00 +20°C° 0 mm 2 mps 740 mmHg 71%
    03:00 +20°C° 0 mm 2 mps 740 mmHg 75%
    04:00 +19°C° 0 mm 2 mps 740 mmHg 80%
    05:00 +19°C° 0 mm 2 mps 740 mmHg 84%
    06:00 +20°C° 0 mm 3 mps 741 mmHg 81%
    07:00 +22°C° 0 mm 3 mps 741 mmHg 78%
    08:00 +25°C° 0 mm 3 mps 741 mmHg 70%
    09:00 +26°C° 0 mm 3 mps 741 mmHg 65%
    10:00 +28°C° 0 mm 3 mps 741 mmHg 61%
    11:00 +29°C° 0 mm 3 mps 742 mmHg 56%
    12:00 +30°C° 0 mm 3 mps 742 mmHg 54%
    13:00 +30°C° 0 mm 3 mps 741 mmHg 53%
    14:00 +30°C° 0 mm 3 mps 741 mmHg 52%
    15:00 +30°C° 0.2 mm 3 mps 741 mmHg 53%
    16:00 +29°C° 0.2 mm 3 mps 741 mmHg 55%
    17:00 +29°C° 0.2 mm 3 mps 741 mmHg 56%
    18:00 +27°C° 0.3 mm 3 mps 741 mmHg 63%
    19:00 +26°C° 0.3 mm 3 mps 741 mmHg 69%
    20:00 +24°C° 0.3 mm 3 mps 741 mmHg 75%
    21:00 +22°C° 0.4 mm 3 mps 741 mmHg 78%
    22:00 +22°C° 0.4 mm 3 mps 741 mmHg 80%
    23:00 +21°C° 0.4 mm 3 mps 741 mmHg 83%

    Tomorrow, 17 August, Friday

    Time Temperature Precipitation Wind Pressure Humidity
    00:00 +21°C° 0.1 mm 3 mps 741 mmHg 83%
    01:00 +20°C° 0.1 mm 3 mps 741 mmHg 83%
    02:00 +20°C° 0.1 mm 3 mps 741 mmHg 83%
    03:00 +20°C° 0 mm 3 mps 741 mmHg 83%
    04:00 +19°C° 0 mm 3 mps 741 mmHg 83%
    05:00 +19°C° 0 mm 3 mps 741 mmHg 83%
    06:00 +20°C° 0 mm 3 mps 741 mmHg 80%
    07:00 +21°C° 0 mm 3 mps 742 mmHg 77%
    08:00 +22°C° 0 mm 3 mps 742 mmHg 74%
    09:00 +25°C° 0 mm 3 mps 742 mmHg 68%
    10:00 +27°C° 0 mm 3 mps 742 mmHg 62%
    11:00 +28°C° 0 mm 3 mps 742 mmHg 56%
    12:00 +29°C° 0 mm 3 mps 742 mmHg 54%
    13:00 +29°C° 0 mm 3 mps 742 mmHg 53%
    14:00 +30°C° 0 mm 3 mps 742 mmHg 52%
    15:00 +29°C° 0 mm 2 mps 741 mmHg 52%
    16:00 +29°C° 0 mm 2 mps 741 mmHg 53%
    17:00 +29°C° 0 mm 2 mps 741 mmHg 54%
    18:00 +28°C° 0.1 mm 2 mps 741 mmHg 58%
    19:00 +26°C° 0.1 mm 2 mps 741 mmHg 63%
    20:00 +25°C° 0.1 mm 2 mps 741 mmHg 67%
    21:00 +24°C° 0.2 mm 2 mps 741 mmHg 69%
    22:00 +23°C° 0.2 mm 2 mps 741 mmHg 72%
    23:00 +22°C° 0.2 mm 1 mps 741 mmHg 75%

    Day after tomorrow, 18 August, Saturday

    Time Temperature Precipitation Wind Pressure Humidity
    00:00 +22°C° 0.4 mm 1 mps 741 mmHg 75%
    01:00 +22°C° 0.4 mm 1 mps 741 mmHg 76%
    02:00 +21°C° 0.4 mm 1 mps 741 mmHg 77%
    03:00 +21°C° 0.2 mm 1 mps 741 mmHg 79%
    04:00 +20°C° 0.2 mm 2 mps 741 mmHg 80%
    05:00 +19°C° 0.2 mm 2 mps 741 mmHg 81%
    06:00 +21°C° 0.3 mm 2 mps 741 mmHg 77%
    07:00 +23°C° 0.3 mm 2 mps 742 mmHg 74%
    08:00 +24°C° 0.3 mm 2 mps 742 mmHg 70%
    09:00 +26°C° 0 mm 2 mps 742 mmHg 63%
    10:00 +28°C° 0 mm 2 mps 742 mmHg 57%
    11:00 +29°C° 0 mm 2 mps 742 mmHg 50%
    12:00 +30°C° 0.1 mm 2 mps 742 mmHg 49%
    13:00 +30°C° 0.1 mm 2 mps 742 mmHg 48%
    14:00 +30°C° 0.1 mm 2 mps 742 mmHg 47%
    15:00 +29°C° 0 mm 2 mps 741 mmHg 51%
    16:00 +28°C° 0 mm 2 mps 741 mmHg 55%
    17:00 +27°C° 0 mm 3 mps 741 mmHg 60%
    18:00 +26°C° 0 mm 3 mps 741 mmHg 62%
    19:00 +25°C° 0 mm 2 mps 741 mmHg 64%
    20:00 +24°C° 0 mm 2 mps 742 mmHg 66%
    21:00 +24°C° 0.2 mm 2 mps 742 mmHg 68%
    22:00 +23°C° 0.2 mm 2 mps 742 mmHg 71%
    23:00 +22°C° 0.2 mm 1 mps 742 mmHg 73%

    19 August, Sunday

    Time Temperature Precipitation Wind Pressure Humidity
    00:00 +22°C° 0.3 mm 1 mps 742 mmHg 75%
    01:00 +21°C° 0.3 mm 1 mps 742 mmHg 78%
    02:00 +21°C° 0.3 mm 1 mps 742 mmHg 80%
    03:00 +21°C° 0.1 mm 1 mps 742 mmHg 81%
    04:00 +20°C° 0.1 mm 1 mps 742 mmHg 82%
    05:00 +20°C° 0.1 mm 1 mps 742 mmHg 84%
    06:00 +22°C° 0.1 mm 1 mps 742 mmHg 78%
    07:00 +23°C° 0.1 mm 1 mps 742 mmHg 73%
    08:00 +25°C° 0.1 mm 1 mps 742 mmHg 68%
    09:00 +26°C° 0.1 mm 1 mps 742 mmHg 62%
    10:00 +28°C° 0.1 mm 1 mps 742 mmHg 56%
    11:00 +29°C° 0.1 mm 2 mps 742 mmHg 50%
    12:00 +30°C° 0 mm 1 mps 742 mmHg 47%
    13:00 +31°C° 0 mm 1 mps 741 mmHg 44%
    14:00 +31°C° 0 mm 1 mps 741 mmHg 41%
    15:00 +31°C° 0 mm 1 mps 741 mmHg 44%
    16:00 +30°C° 0 mm 1 mps 741 mmHg 47%
    17:00 +30°C° 0 mm 1 mps 741 mmHg 50%
    18:00 +28°C° 0.1 mm 1 mps 741 mmHg 54%
    19:00 +27°C° 0.1 mm 2 mps 741 mmHg 57%
    20:00 +25°C° 0.1 mm 2 mps 741 mmHg 61%
    21:00 +24°C° 1 mm 2 mps 741 mmHg 67%
    22:00 +23°C° 1 mm 2 mps 741 mmHg 73%
    23:00 +22°C° 1 mm 1 mps 741 mmHg 79%

    20 August, Monday

    Time Temperature Precipitation Wind Pressure Humidity
    00:00 +21°C° 0.4 mm 1 mps 741 mmHg 79%
    01:00 +21°C° 0.4 mm 1 mps 741 mmHg 80%
    02:00 +21°C° 0.4 mm 1 mps 741 mmHg 80%
    03:00 +21°C° 0.2 mm 1 mps 741 mmHg 81%
    04:00 +20°C° 0.2 mm 2 mps 741 mmHg 83%
    05:00 +20°C° 0.2 mm 2 mps 741 mmHg 85%
    06:00 +21°C° 0 mm 2 mps 741 mmHg 82%
    07:00 +21°C° 0 mm 2 mps 741 mmHg 79%
    08:00 +23°C° 0 mm 2 mps 742 mmHg 77%
    09:00 +25°C° 0.5 mm 2 mps 742 mmHg 70%
    10:00 +26°C° 0.5 mm 2 mps 742 mmHg 64%
    11:00 +27°C° 0.5 mm 2 mps 742 mmHg 57%
    12:00 +28°C° 0.3 mm 1 mps 742 mmHg 54%
    13:00 +29°C° 0.3 mm 1 mps 742 mmHg 51%
    14:00 +27°C° 0.3 mm 0 mps 742 mmHg 48%
    15:00 +29°C° 0 mm 1 mps 742 mmHg 49%
    16:00 +29°C° 0 mm 1 mps 741 mmHg 50%
    17:00 +29°C° 0 mm 1 mps 741 mmHg 52%
    18:00 +27°C° 0 mm 1 mps 742 mmHg 56%
    19:00 +26°C° 0 mm 1 mps 742 mmHg 60%
    20:00 +24°C° 0 mm 2 mps 742 mmHg 65%
    21:00 +23°C° 0 mm 2 mps 742 mmHg 68%
    22:00 +23°C° 0 mm 2 mps 742 mmHg 71%
    23:00 +21°C° 0 mm 2 mps 742 mmHg 74%

    21 August, Tuesday

    Time Temperature Precipitation Wind Pressure Humidity
    00:00 +22°C° 0.1 mm 1 mps 742 mmHg 76%
    01:00 +21°C° 0.1 mm 1 mps 742 mmHg 77%
    02:00 +21°C° 0.1 mm 1 mps 742 mmHg 79%
    03:00 +20°C° 0 mm 1 mps 742 mmHg 81%
    04:00 +20°C° 0 mm 1 mps 742 mmHg 82%
    05:00 +19°C° 0 mm 2 mps 742 mmHg 83%
    06:00 +20°C° 0 mm 2 mps 743 mmHg 79%
    07:00 +23°C° 0 mm 2 mps 743 mmHg 76%
    08:00 +24°C° 0 mm 2 mps 743 mmHg 72%
    09:00 +25°C° 0.6 mm 2 mps 743 mmHg 66%
    10:00 +27°C° 0.6 mm 2 mps 743 mmHg 60%
    11:00 +28°C° 0.6 mm 2 mps 743 mmHg 55%
    12:00 +29°C° 0.2 mm 1 mps 743 mmHg 52%
    13:00 +29°C° 0.2 mm 1 mps 743 mmHg 49%
    14:00 +30°C° 0.2 mm 1 mps 743 mmHg 46%
    15:00 +30°C° 0 mm 1 mps 743 mmHg 46%
    16:00 +30°C° 0 mm 1 mps 742 mmHg 47%
    17:00 +29°C° 0 mm 1 mps 742 mmHg 48%
    18:00 +28°C° 0 mm 1 mps 742 mmHg 54%
    19:00 +26°C° 0 mm 2 mps 742 mmHg 59%
    20:00 +24°C° 0 mm 2 mps 742 mmHg 65%
    21:00 +23°C° 0 mm 2 mps 742 mmHg 67%
    22:00 +23°C° 0 mm 2 mps 742 mmHg 70%
    23:00 +21°C° 0 mm 2 mps 742 mmHg 72%
    Show more